Погода в Керёне

Южная Корея     36°17′18″N   127°14′30″E
темп.,
°C
ветер,
м/с
пор.,
м/с
влажн.,
%
обл.,
%
осадки,
мм/ч
давл.,
гПа
погр.,
м
16 апреля, пт
пт1600:00+7ююз1163100 0.0 101910
03:00+7юв1161100 0.0 101811
06:00+7юв31061100 0.1 1016293
09:00+13юз4105596 0.1 1016987
12:00+12з51071100 0.0 1017844
15:00+10юз3987100 0.3 1018491
18:00+11юз2485100 0.0 1017421
21:00+9ю1193100 0.0 101811
17 апреля, сб
сб1700:00+9ююв1193100 0.0 101710
03:00+8юз1193100 0.0 101510
06:00+7ююз22949 0.0 101419
09:00+13зюз7107555 0.2 10131202
12:00+14з611420 0.6 10131910
15:00+14зсз913260 0.6 10123249
18:00+10з613410 0.0 10141978
21:00+6з510699 0.0 1016967
18 апреля, вс
вс1800:00+6з5128198 0.1 10161394
03:00+6з513765 0.3 10151056
06:00+6зсз412750 0.0 1015762
09:00+11зсз714482 0.0 10161973
12:00+15зсз812335 0.0 10152124
15:00+16зсз79300 0.0 10141706
18:00+13з56450 0.0 1015995
21:00+6ююз36690 0.0 1018121
19 апреля, пн
пн1900:00+5ююз23810 0.0 101852
03:00+4ююз22850 0.0 101838
06:00+4ю22780 0.0 101813
09:00+12юз23440 0.0 1019467
12:00+17зюз45330 0.0 10181123
15:00+19зюз55280 0.0 10161325
18:00+16зюз47410 0.0 1016431
21:00+9ююз22670 0.0 101940
20 апреля, вт
вт2000:00+8ююз12730 0.0 102011
03:00+7ю11710 0.0 102010
06:00+7ююв117265 0.0 102110
09:00+15зюз11460 0.0 1022408
12:00+20з34333 0.0 1021999
15:00+24з34240 0.0 10191423
18:00+20з35380 0.0 1020154
21:00+12ююз22540 0.0 102213